Location: downtown San Diego
(32.7310°N, 117.1990°W)
Time: 17:51:40
(UTC-07:00)

Cosmos 1461 - Pass Details

Date: 19 May 2017
Orbit: 525 x 648 km, 65.0° (Epoch: 26 May)

Event Time Altitude Azimuth Distance (km) Brightness Sun altitude
Rises 20:43:55 0° 327° (NNW) 2,765 7.8 -11.9°
Reaches altitude 10° 20:46:08 10° 323° (NW) 1,885 6.8 -12.3°
Maximum altitude 20:50:18 57° 245° (WSW) 696 3.5 -13.0°
Enters shadow 20:54:10 13° 168° (SSE) 1,776 5.0 -13.7°
